Liberia, Costa Rica

11:51 PM CST on October 21, 2017 (GMT -0600)
Daniel Oduber Quiros International

Weather History for MRLB - June, 2013

Change the Weather History Date:

Saturday, June 22, 2013

  Actual Average Record
Temperature  
Mean Temperature 81 °F -  
Max Temperature 90 °F 87 °F 95 °F (2015)
Min Temperature 72 °F 75 °F 70 °F (2017)
Cooling Degree Days 16    
Growing Degree Days 31 (Base 50)    
Moisture  
Dew Point 69 °F    
Average Humidity 59    
Maximum Humidity 94    
Minimum Humidity 39    
Precipitation  
Precipitation 0.00 in - - ()
Sea Level Pressure  
Sea Level Pressure 29.81 in    
Wind  
Wind Speed 7 mph ()    
Max Wind Speed 17 mph    
Max Gust Speed -    
Visibility 7.7 miles    
Events      
Averages and records for this station are not official NWS values.
T = Trace of Precipitation, MM = Missing Value Source: Averaged Metar Reports

Daily Weather History Graph

Daily Weather History Graph

Search for Another Location

Airport or City:

Trip Planner

Search our weather history database for the weather conditions in past years. The results will help you decide how hot, cold, wet, or windy it might be!

Date:

Astronomy

Jun. 22, 2013 Rise Set
Actual Time 5:21 AM CST 6:06 PM CST
Civil Twilight 4:58 AM CST 6:29 PM CST
Nautical Twilight 4:31 AM CST 6:56 PM CST
Astronomical Twilight 4:03 AM CST 7:24 PM CST
Moon 5:30 PM CST 4:24 AM CST
Length of Visible Light 13h 31m
Length of Day
12h 44m
Waxing Gibbous, 99% of the Moon is Illuminated
Jun 22
Waxing Gibbous
Jun 23
Full
Jun 29
Last Quarter
Jul 8
New
Jul 15
First Quarter

Hourly Weather History & Observations

Time (CST) Temp. Heat Index Dew Point Humidity Pressure Visibility Wind Dir Wind Speed Gust Speed Precip Events Conditions
6:00 AM 73 °F - 71 °F 93% 29.83 in 12 mi Calm Calm - -   Clear
6:00 AM 73.4 °F - 71.6 °F 94% 29.82 in - Calm Calm - N/A   Clear
7:00 AM 77.0 °F - 73.4 °F 89% 29.83 in 6.2 mi West 3.5 mph - N/A   Mostly Cloudy
8:00 AM 80.6 °F 85.4 °F 73.4 °F 79% 29.84 in 6.2 mi Calm Calm - N/A   Mostly Cloudy
9:00 AM 86 °F - 70 °F 49% 29.86 in 12 mi East 11.5 mph - -   Scattered Clouds
9:00 AM 86.0 °F 90.4 °F 69.8 °F 58% 29.84 in 6.2 mi East 11.5 mph - N/A   Mostly Cloudy
10:00 AM 87.8 °F 91.4 °F 68.0 °F 52% 29.83 in 6.2 mi East 10.4 mph - N/A   Mostly Cloudy
11:00 AM 89.6 °F 93.4 °F 68.0 °F 49% 29.83 in 6.2 mi ESE 10.4 mph - N/A   Mostly Cloudy
12:00 PM 90 °F - 69 °F 40% 29.83 in 12 mi East 12.7 mph - -   Overcast
12:00 PM 89.6 °F 93.4 °F 68.0 °F 49% 29.82 in 6.2 mi East 12.7 mph - N/A   Mostly Cloudy
1:00 PM 89.6 °F 93.4 °F 68.0 °F 49% 29.81 in 6.2 mi East 17.3 mph - N/A   Mostly Cloudy
2:00 PM 89.6 °F 94.7 °F 69.8 °F 52% 29.80 in 6.2 mi ENE 13.8 mph - N/A   Mostly Cloudy
3:00 PM 90 °F - 68 °F 39% 29.79 in 12 mi ENE 11.5 mph - -   Overcast
3:00 PM 89.6 °F 93.4 °F 68.0 °F 49% 29.78 in 6.2 mi ENE 11.5 mph - N/A   Mostly Cloudy
4:00 PM 87.8 °F 92.6 °F 69.8 °F 55% 29.76 in 6.2 mi ENE 16.1 mph - N/A   Mostly Cloudy
5:00 PM 84.2 °F 86.6 °F 66.2 °F 55% 29.77 in 6.2 mi East 13.8 mph - N/A   Overcast
6:00 PM 82 °F - 66 °F 50% 29.80 in 12 mi East 11.5 mph - -   Overcast
6:00 PM 82.4 °F 84.6 °F 66.2 °F 58% 29.79 in 6.2 mi East 11.5 mph - N/A   Overcast
7:00 PM 80.6 °F 83.2 °F 68.0 °F 65% 29.80 in 6.2 mi East 9.2 mph - N/A   Overcast
8:00 PM 80.6 °F 83.2 °F 68.0 °F 65% 29.82 in 6.2 mi East 8.1 mph - N/A   Overcast